Helicity
35 1 0 12 59 54 64 64 59 42 60 97 95 137 74 65 72 96 139 148 84 49 62 60 85 114 100 100 111 119 124 93 101 93 130 85 94 80 83 89 53 52 78 154 93
28 31 -6 28 126 208 49 69 71 52 61 34 5 86 100 90 70 152 125 122 59 59 62 58 79 85 128 116 119 121 120 131 144 124 94 78 97 96 89 67 35 33 37 45 40
33 47 -21 -13 17 303 29 48 26 16 43 38 1 94 99 91 191 205 140 106 93 113 110 104 78 105 126 113 131 113 152 88 83 92 93 78 60 41 62 51 37 59 60 66 60
12 -6 -36 -19 34 92 213 76 65 46 40 64 42 111 115 184 269 214 234 77 97 102 104 101 98 125 121 112 119 102 97 103 86 63 63 70 74 41 24 34 81 41 49 45 38
15 14 -9 -29 43 82 189 97 69 47 54 90 42 117 220 213 208 224 187 77 69 102 115 125 116 132 130 119 93 105 84 81 72 68 58 55 46 38 37 27 21 18 24 24 32
22 4 1 12 42 85 127 94 21 35 15 66 91 139 204 145 147 231 178 69 87 90 104 118 139 154 130 115 128 117 86 77 73 70 50 63 71 60 22 32 45 37 30 29 22
23 -13 32 44 37 0 107 162 39 15 33 5 153 90 88 167 82 161 283 71 73 100 103 106 105 138 92 96 100 88 91 59 53 70 70 70 47 16 26 43 44 43 37 32 34
29 23 61 78 29 20 35 36 15 11 27 30 83 158 135 108 128 274 61 52 79 83 95 114 126 130 131 93 82 86 89 88 56 54 73 68 84 23 35 39 38 46 42 51 54
19 39 18 119 -17 1 -2 -4 26 1 41 45 136 117 182 165 133 288 251 129 114 101 104 98 116 121 110 98 97 74 86 77 62 49 63 35 79 71 70 44 49 52 51 59 63
1 39 27 84 30 -9 -11 6 57 26 -8 35 115 108 176 175 164 114 40 27 66 54 108 113 122 157 132 142 159 102 90 63 67 20 17 33 23 25 31 41 37 47 59 71 87
24 15 20 50 49 67 30 73 66 159 179 53 63 125 147 140 142 87 83 61 66 79 102 109 123 129 143 163 153 146 111 95 77 69 59 21 25 31 40 43 52 95 121 106 104
29 32 7 -6 24 5 3 16 30 0 161 154 147 134 173 130 155 128 99 76 69 58 48 57 52 82 94 107 108 99 91 79 65 55 29 15 32 20 79 114 137 151 157 137 111
-82 -69 -43 6 16 50 46 28 12 94 151 140 111 100 98 91 99 128 120 113 80 59 60 37 48 32 46 49 58 47 62 81 59 55 9 49 -15 32 63 94 178 155 136 144 146
-50 -136 -180 8 51 91 83 106 96 118 85 136 97 78 111 116 62 83 92 73 52 47 68 45 22 41 45 47 45 46 66 43 35 46 42 116 43 114 93 108 95 109 75 96 137
23 -43 -49 29 68 33 24 35 44 63 126 95 110 74 77 48 42 50 75 69 45 31 33 37 29 30 27 40 24 60 47 47 51 58 64 53 78 31 91 68 92 23 83 86 30
24 47 58 105 90 51 24 32 45 71 94 87 83 82 71 60 48 60 57 45 44 37 26 23 22 12 26 26 24 43 56 47 69 43 54 41 53 17 66 53 32 36 22 27 37
35 59 62 48 73 46 34 39 46 42 83 59 59 64 48 58 59 56 50 24 34 32 27 14 12 25 17 32 34 30 61 60 53 55 55 70 44 86 62 53 5 0 17 34 6
57 102 89 48 40 44 37 39 2 62 51 54 68 62 53 67 55 49 45 17 15 27 31 31 32 22 29 36 41 20 17 37 24 16 17 -22 -25 66 73 26 4 -30 -1 49 9
72 113 118 68 93 47 83 59 18 37 45 44 64 49 25 29 40 37 25 21 22 20 41 41 32 16 -2 10 13 22 -4 36 -3 14 14 32 21 143 35 4 -35 5 70 92 33
71 98 108 81 109 111 39 7 12 11 24 48 23 36 19 14 29 5 3 8 1 15 22 30 26 12 1 -13 -9 -14 6 9 15 21 43 65 64 101 35 -5 38 -11 7 27 16
45 30 41 86 87 23 55 40 48 42 48 46 19 24 16 22 29 24 21 28 26 15 14 2 -2 -7 -3 6 -1 5 16 20 25 49 35 34 37 116 148 143 136 42 16 15 44
47 49 -5 39 41 43 42 44 41 49 52 57 60 49 45 55 59 56 36 26 13 5 19 5 26 37 47 -11 12 48 48 55 31 27 69 54 46 91 106 51 25 55 29 70 65
37 36 33 41 64 38 35 36 35 57 53 56 52 46 42 51 67 55 49 12 29 25 26 12 42 55 38 35 13 52 49 72 60 36 77 18 36 72 79 77 73 59 42 69 65
39 40 21 29 22 55 52 50 47 42 43 43 39 47 58 62 54 47 48 23 16 31 -6 10 62 84 55 27 19 71 65 83 83 63 47 80 30 97 106 98 92 68 77 71 71
16 34 23 26 26 31 40 44 50 52 41 42 52 61 60 56 64 70 52 45 38 34 23 30 63 43 88 102 77 91 92 90 142 147 64 44 11 12 90 95 87 69 76 72 69
29 31 25 15 13 20 22 43 57 34 36 40 42 40 44 43 33 39 36 35 38 52 39 19 26 9 47 23 29 56 78 97 104 109 116 68 49 30 41 87 88 72 66 64 65
37 27 13 14 21 32 14 19 32 22 30 13 16 22 35 25 13 6 6 18 28 44 56 60 41 1 16 26 -4 37 62 112 103 109 104 85 59 37 71 96 92 90 77 65 57
Wind_Speed
63 71 69 51 49 58 31 24 12 25 30 40 43 42 37 30 27 33 38 30 27 19 22 17 20 21 23 28 31 32 39 39 37 37 34 33 37 37 42 49 44 44 51 47 46
64 60 63 45 39 41 20 13 10 16 23 29 37 28 28 27 28 34 33 28 20 22 22 22 23 19 28 30 32 34 43 42 36 37 36 35 40 42 44 46 53 54 55 57 59
63 54 50 36 30 31 21 11 5 14 21 27 40 39 26 24 28 33 27 25 21 28 26 25 20 21 30 29 32 37 44 39 39 40 42 44 47 47 49 56 59 61 61 59 61
52 16 31 25 21 18 10 10 14 14 22 27 40 28 20 27 47 31 34 23 23 24 22 23 27 30 32 35 35 42 43 44 43 44 48 52 53 54 56 57 58 64 67 70 72
66 69 35 21 16 15 10 2 8 10 15 27 41 25 30 24 25 32 34 20 21 24 26 30 31 33 38 35 36 47 44 46 48 52 56 59 64 66 69 68 68 69 69 71 71
72 64 31 15 13 14 12 8 3 12 16 21 30 43 16 25 31 27 23 22 24 24 25 27 35 35 33 36 44 41 46 51 51 55 57 63 65 58 56 50 59 61 64 64 66
71 48 24 13 6 9 8 18 7 10 17 6 28 35 29 20 26 24 29 17 21 24 25 25 22 35 29 37 35 40 51 51 52 51 54 58 68 60 62 60 62 63 63 66 71
72 13 13 5 13 15 27 16 3 20 31 1 13 19 38 24 18 17 7 6 12 13 15 21 20 25 32 26 34 43 48 57 42 46 49 51 68 53 50 60 67 71 77 82 81
58 22 12 14 16 13 12 28 39 50 15 7 13 21 31 22 18 30 29 11 9 13 16 20 24 28 30 38 45 46 59 56 57 46 52 53 69 60 63 73 85 84 82 82 83
57 39 15 16 17 10 39 36 38 26 29 17 17 24 29 25 22 11 9 11 14 12 18 27 30 34 36 41 56 53 56 54 60 49 56 68 81 81 74 76 81 82 82 80 80
55 51 11 24 19 17 37 42 19 5 23 4 1 15 13 17 19 10 15 12 16 23 25 24 29 34 33 36 40 45 52 60 60 57 67 70 79 79 77 76 75 72 77 80 81
57 59 51 13 7 14 13 11 20 32 8 11 10 6 9 26 20 19 27 24 24 23 21 27 32 26 27 33 38 43 51 56 57 49 66 73 86 81 60 53 57 67 77 81 84
41 48 53 52 27 29 21 6 13 23 19 11 9 10 15 15 16 19 24 26 19 20 22 28 22 19 27 32 37 40 47 52 56 64 64 68 69 48 47 50 56 69 74 79 83
30 29 36 45 47 46 42 29 29 31 21 12 18 19 20 22 20 20 24 24 23 22 21 23 20 27 31 36 37 44 40 47 54 61 62 66 78 64 56 56 65 73 73 78 80
31 22 22 26 41 39 37 32 29 33 43 20 21 26 20 18 20 22 25 24 19 19 26 26 25 29 33 34 32 40 42 53 58 62 68 53 61 62 52 67 68 76 75 79 84
30 21 20 28 29 32 32 29 32 45 34 30 27 26 25 19 20 23 23 22 24 24 26 23 26 28 32 33 34 46 50 53 45 49 60 49 45 54 56 64 77 79 78 81 86
29 30 23 24 29 31 33 37 42 46 42 39 34 30 21 25 23 22 22 21 25 23 25 26 27 27 31 36 34 38 46 48 48 48 50 39 40 48 58 66 69 71 71 75 82
29 37 40 31 29 38 39 40 53 37 45 41 34 29 25 26 22 23 25 21 24 28 28 29 32 26 23 32 35 34 37 39 42 37 41 34 36 32 54 58 53 58 61 65 75
36 44 43 33 35 38 39 58 56 49 44 48 35 26 21 24 26 26 24 27 29 30 33 35 31 24 23 26 32 33 33 33 37 37 35 31 36 16 49 43 46 52 12 44 52
34 41 46 34 40 42 54 62 52 45 43 38 40 35 40 34 35 11 19 15 23 23 29 24 24 29 27 34 35 37 33 35 35 30 30 25 25 18 4 14 13 28 14 21 29
32 44 40 37 38 49 68 63 54 45 42 41 44 44 41 39 36 36 34 35 35 34 33 29 31 34 33 37 37 34 33 35 32 29 28 26 24 21 26 23 13 9 7 13 23
34 45 29 33 46 46 56 50 48 49 45 45 40 41 42 43 41 38 38 35 35 33 29 30 31 32 36 33 34 36 35 35 31 25 25 25 21 28 28 31 36 30 37 27 32
34 34 31 32 54 54 48 51 45 45 42 42 43 40 39 41 40 38 36 34 35 35 27 31 30 29 31 31 32 33 35 36 31 24 25 24 23 29 28 26 21 18 28 31 37
28 32 32 37 38 52 50 44 47 44 43 42 40 39 38 40 38 36 34 34 33 34 29 28 30 31 29 26 26 27 28 30 30 27 23 25 19 20 21 21 18 17 20 22 26
29 30 29 34 35 38 40 43 41 39 36 38 38 36 36 35 33 32 29 29 30 33 30 29 26 25 27 30 34 35 35 32 27 28 25 18 14 12 14 16 15 14 19 20 21
27 28 28 29 31 33 33 36 39 36 35 35 32 33 31 29 27 25 24 24 24 28 27 25 23 27 28 18 16 26 35 35 33 29 27 30 31 17 9 11 10 11 14 17 18
31 29 26 26 26 28 28 30 31 32 31 30 29 26 25 24 22 22 22 25 26 24 18 11 13 17 7 43 52 38 15 25 21 17 17 9 5 17 9 5 7 10 11 12 15
Wind_Direction
2 334 317 297 271 259 231 249 275 261 260 245 244 259 226 229 240 252 252 265 264 260 269 268 267 266 271 272 274 279 274 276 282 282 288 296 290 294 290 283 290 289 285 293 297
16 7 329 303 280 270 211 227 270 279 264 250 234 242 219 209 236 248 264 261 253 255 257 255 255 257 271 272 275 269 272 278 287 289 289 295 290 292 291 290 284 284 286 287 289
20 24 322 310 314 296 224 202 287 292 269 250 224 236 205 211 230 257 259 254 255 259 260 262 261 265 268 269 272 272 273 283 286 289 290 290 290 292 291 288 285 284 286 288 289
32 26 299 305 285 282 247 223 268 303 260 242 217 207 186 222 235 259 258 249 257 260 257 253 257 263 265 265 273 271 277 282 286 288 288 287 290 290 286 287 290 288 287 286 284
32 7 321 289 272 259 235 169 282 328 274 238 210 207 228 249 258 264 252 244 254 257 255 258 255 264 263 271 275 273 280 283 286 286 285 285 284 286 285 287 289 289 289 288 288
32 6 341 287 230 216 202 210 333 302 277 243 209 221 247 237 253 257 255 245 253 258 261 263 264 270 271 274 274 284 283 283 287 286 287 287 288 293 297 301 297 295 294 295 294
44 358 351 326 265 30 195 196 359 354 26 215 217 214 230 255 244 243 245 255 255 257 262 274 277 272 273 274 283 286 283 285 286 289 290 296 289 289 294 295 297 297 297 297 296
56 57 353 299 201 164 156 147 72 31 44 23 213 200 223 251 250 247 276 278 276 280 275 283 288 282 280 286 287 282 285 282 289 291 295 297 286 299 304 301 297 297 296 295 295
69 88 51 17 172 164 57 44 47 60 15 323 247 208 214 232 227 236 249 264 281 285 290 289 289 282 281 277 278 280 278 281 287 294 294 291 290 298 301 298 295 296 297 297 297
74 98 97 93 63 101 68 58 47 20 35 7 250 211 220 216 230 262 287 288 280 287 287 278 280 276 276 274 273 275 279 283 284 294 293 291 289 293 299 298 296 297 299 300 300
81 94 106 127 145 174 166 155 231 303 19 3 82 172 198 218 245 267 258 264 276 277 278 284 278 271 276 285 288 288 287 286 291 297 295 294 293 297 301 300 299 302 303 302 302
84 94 106 155 227 224 241 249 204 178 108 47 63 99 217 219 220 247 249 264 271 274 285 283 277 291 298 297 295 293 292 293 298 303 300 297 294 299 308 310 310 309 308 306 305
90 97 98 110 92 33 46 37 205 112 175 160 191 214 251 256 248 259 259 253 279 282 288 279 292 305 302 300 298 299 296 298 298 303 304 304 302 308 315 317 319 318 315 312 310
92 109 116 108 111 122 134 170 185 182 189 225 210 214 233 252 260 277 276 273 282 282 293 296 305 301 300 300 303 297 312 307 306 308 301 315 297 303 312 313 317 322 322 319 318
93 115 130 121 117 121 138 155 176 176 155 205 196 200 229 261 250 264 266 269 295 300 291 296 298 299 299 305 314 308 316 308 307 306 306 312 304 308 317 313 317 324 323 318 311
84 114 139 133 133 136 143 161 165 136 153 177 191 200 202 221 234 244 261 270 272 294 299 308 308 308 310 317 319 310 312 311 316 313 306 313 309 312 319 322 316 313 312 315 314
80 90 122 145 137 147 150 142 133 127 149 156 167 180 199 198 216 233 246 264 266 283 290 297 308 323 316 316 326 324 318 312 310 313 311 329 322 320 314 312 319 316 320 324 322
87 94 96 119 140 140 139 135 112 147 141 159 172 179 194 203 221 233 242 276 280 282 299 304 306 327 355 326 327 334 329 319 317 325 312 240 220 336 329 329 333 317 323 323 344
93 91 92 104 121 133 132 110 114 130 153 138 151 191 225 222 227 248 281 285 291 310 301 302 316 358 4 345 303 288 277 283 225 216 224 189 250 46 334 340 329 331 67 33 323
97 94 89 105 116 119 113 109 120 134 141 150 139 157 146 168 168 244 283 281 306 258 248 290 244 246 251 217 213 217 248 199 197 221 219 195 211 188 307 311 117 278 278 58 306
103 92 96 107 116 109 98 106 119 131 138 134 130 134 139 145 151 153 157 161 170 173 178 188 195 192 202 192 186 199 211 192 209 190 223 233 196 112 109 108 163 160 97 71 62
98 89 103 113 102 105 103 117 125 124 131 129 134 133 131 138 138 144 144 152 157 162 176 180 185 184 187 190 202 192 193 173 179 186 168 204 198 113 105 102 96 83 62 75 69
100 101 108 117 92 99 111 113 121 124 129 129 129 135 139 133 136 139 142 146 150 150 167 158 171 177 179 175 172 178 188 180 183 175 184 193 142 113 115 120 112 92 68 69 65
105 100 107 108 115 103 106 115 118 123 127 130 134 137 137 130 137 135 138 145 151 158 169 166 163 169 196 213 194 165 163 153 163 160 167 175 198 102 130 131 121 101 89 88 84
98 102 118 106 113 115 111 114 120 126 137 132 130 139 137 133 137 140 153 147 154 155 154 155 185 179 197 215 217 211 203 189 168 180 186 122 183 169 137 137 121 102 83 86 87
91 106 115 121 126 123 124 120 118 126 137 139 144 142 144 146 149 151 160 151 157 135 146 150 172 221 227 159 133 196 207 200 198 196 203 220 235 219 108 108 93 88 72 63 74
66 89 117 124 128 127 127 129 132 128 138 151 154 162 170 183 178 193 200 205 198 175 153 103 73 18 94 326 271 239 221 192 185 173 181 179 19 18 46 39 16 19 26 40 52